Overview Statistics Trail Chart Weather Telemetry Raw packets
 

This is the latest recevied weather packets stored in our database for station/object W6JCZ-13. If no packets are shown the sender has not sent any weather packets the latest 10 day(s).

<< 5 6 7 8 9 10 11 >>
Time Temp. Humidity Pressure Rain* Wind** Luminosity Snow
1788531017 12.22° C 89% 1011 hPa 0 mm - - -
1788530416 12.22° C 89% 1010.8 hPa 0 mm - - -
1788529816 11.67° C 89% 1010.7 hPa 0 mm - - -
1788529217 12.22° C 88% 1010.8 hPa 0 mm - - -
1788528617 12.22° C 88% 1010.6 hPa 0 mm - - -
1788528017 11.67° C 87% 1010.5 hPa 0 mm - - -
1788527417 12.22° C 87% 1010.6 hPa 0 mm - - -
1788526816 12.22° C 87% 1010.4 hPa 0 mm - - -
1788526217 12.22° C 87% 1010.3 hPa 0 mm - - -
1788525616 12.78° C 87% 1010.1 hPa 0 mm - - -
1788525016 12.78° C 86% 1010.2 hPa 0 mm - - -
1788524416 12.78° C 85% 1010.1 hPa 0 mm - - -
1788523816 12.78° C 85% 1010 hPa 0 mm - - -
1788523217 12.78° C 84% 1010.1 hPa 0 mm - - -
1788522616 13.33° C 84% 1010.1 hPa 0 mm - - -
1788522016 13.33° C 84% 1010 hPa 0 mm - - -
1788521416 13.89° C 82% 1009.9 hPa 0 mm - - -
1788520816 14.44° C 81% 1010 hPa 0 mm - - -
1788520216 14.44° C 80% 1009.9 hPa 0 mm - - -
1788519616 15° C 79% 1009.8 hPa 0 mm - - -
1788519016 15.56° C 79% 1009.8 hPa 0 mm - - -
1788518416 15.56° C 78% 1009.6 hPa 0 mm - - -
1788517834 16.11° C 77% 1009.6 hPa 0 mm - - -
1788517216 16.67° C 77% 1009.6 hPa 0 mm - - -
1788516616 16.67° C 77% 1009.5 hPa 0 mm - - -

* Rain latest hour (hover to see other rain measurements)
** Current wind speed in m/s (hover to see current wind gust speed)